Regional Weather Roundup
Issued by NWS

Home | Current Version | Previous Version | Text Only | Print | Product List | Glossary Off
Versions: 1 2 3 4 5 6 7 8 9 10 11 12 13 14 15 16 17 18 19 20 21 22 23 24 25 26 27 28 29 30 31 32 33 34 35 36 37 38 39 40 41 42 43 44 45 46 47 48 49 50

000
ASUS43 KFSD 110002
RWRSD

WEATHER ROUNDUP FOR SOUTH DAKOTA
NATIONAL WEATHER SERVICE SIOUX FALLS SD
600 PM CST SAT DEC 10 2016

NOTE: "FAIR" INDICATES FEW OR NO CLOUDS BELOW 12,000 FEET WITH NO
SIGNIFICANT WEATHER AND/OR OBSTRUCTIONS TO VISIBILITY.


SDZ001>005-009-010-012>017-110100-
NORTHWEST AND NORTH CENTRAL SOUTH DAKOTA

CITY           SKY/WX    TMP DP  RH WIND       PRES   REMARKS
BUFFALO          N/A      2  -4  76 E13       29.71S WCI -15
FAITH            N/A      2   1  96 E13       29.84R WCI -15
MOBRIDGE       CLOUDY     4  -3  73 E9        29.95R HAZE    WCI -10
$$

SDZ012>016-024>037-041>051-057-063-072>074-110100-
SOUTHWEST AND SOUTH CENTRAL SOUTH DAKOTA

CITY           SKY/WX    TMP DP  RH WIND       PRES   REMARKS
RAPID CTY ARPT CLOUDY     5   1  83 SE9       29.74F WCI  -9
PIERRE         CLOUDY     8   3  80 E17       29.89F WCI -10
CUSTER         CLOUDY    35  26  69 W8        29.58R WCI  29
ELLSWORTH AFB  CLOUDY     5   2  86 SE12      29.72F WCI -11
PHILIP         CLOUDY     7   5  91 E9        29.85F WCI  -7
PINE RIDGE     CLOUDY    11   9  92 E10       29.71S WCI  -3
SPEARFISH      FAIR       5   1  85 NE8       29.67R WCI  -8
WINNER         CLOUDY    22  18  85 E12       29.85F WCI  10
$$

SDZ004>011-016>023-039-040-110100-
NORTHEAST SOUTH DAKOTA

CITY           SKY/WX    TMP DP  RH WIND       PRES   REMARKS
ABERDEEN       LGT SNOW   6  -1  73 E15       30.08F WCI -12
WATERTOWN      LGT SNOW   4  -1  80 E12G20    30.04F VSB 3/4 WCI -12
BROOKINGS      LGT SNOW   9   5  85 E12       30.05F FOG     WCI  -6
SISSETON         N/A      4   0  83 E8        30.15F WCI  -9
$$

SDZ017-020-022-023-036>040-048>070-110100-
SOUTHEAST SOUTH DAKOTA

CITY           SKY/WX    TMP DP  RH WIND       PRES   REMARKS
SIOUX FALLS    LGT SNOW  17  14  88 E14       30.04R FOG     WCI   3
HURON          CLOUDY    13  10  88 E15       30.02F WCI  -3
CHAMBERLAIN    CLOUDY    19  17  93 E10G17    29.91F WCI   7
MITCHELL       CLOUDY    18  15  88 SE17      30.01F WCI   3
YANKTON        CLOUDY    25  18  74 SE15      29.98F WCI  12
$$

ABBREVIATIONS USED IN REMARKS
   TC - TEMPERATURE IN CELSIUS
  WCI - WIND CHILL INDEX
   HX - HEAT INDEX
  VSB - VISIBILITY





USA.gov is the U.S. government's official web portal to all federal, state and local government web resources and services.